Regional Weather Roundup
Issued by NWS

Home | Current Version | Previous Version | Text Only | Print | Product List | Glossary On
Versions: 1 2 3 4 5 6 7 8 9 10 11 12 13 14 15 16 17 18 19 20 21 22 23 24 25 26 27 28 29 30 31 32 33 34 35 36 37 38 39 40 41 42 43 44 45 46 47 48 49 50
000
ASUS45 KBOU 201707
RWRCO

WEATHER ROUNDUP FOR COLORADO
NATIONAL WEATHER SERVICE DENVER/BOULDER CO
1000 AM MST FRI JAN 20 2017

NOTE: "FAIR" INDICATES FEW OR NO CLOUDS BELOW 12000 FEET WITH NO
SIGNIFICANT WEATHER AND/OR OBSTRUCTIONS TO VISIBILITY.

COZ001>005-013-030-031-201800-
...NORTHWEST COLORADO...

CITY           SKY/WX    TMP DP  RH WIND       PRES   REMARKS
CRAIG          FLURRIES  27  23  85 W7        29.59R WCI  19
HAYDEN         PTSUNNY   27  21  80 W13       29.57R WCI  16
MEEKER         LGT SNOW  23  21  92 SW3       29.59R FOG
MOUNT WERNER   NOT AVBL
STEAMBOAT SPGS CLOUDY    26  23  89 CALM      29.56S
WALDEN           N/A     21  18  86 N7        29.52R WCI  13
$$

COZ006>008-011-201800-
...WEST CENTRAL VALLEYS...

CITY           SKY/WX    TMP DP  RH WIND       PRES   REMARKS
GRAND JUNCTION LGT SNOW  32  32 100 W6        29.63R FOG     WCI  26
MONTROSE       CLOUDY    31  30  96 NE5       29.64R WCI  26
EAGLE          CLOUDY    28  27  93 CALM      29.58R
RIFLE          CLOUDY    32  31  96 CALM      29.59S FOG
DELTA          CLOUDY    34  34  99 CALM      29.64R VSB 1/4
NUCLA          CLOUDY    32  28  86 SW7       29.70R WCI  26
$$

COZ017>023-064>068-201800-
...SOUTHWEST COLORADO...

CITY           SKY/WX    TMP DP  RH WIND       PRES   REMARKS
DURANGO        LGT SNOW  27  24  89 SW9       29.70R FOG     WCI  18
CORTEZ         FLURRIES  32  27  81 SW9       29.71S WCI  24
PAGOSA SPRINGS LGT SNOW  27  25  92 S3        29.69R
TELLURIDE      CLOUDY    25  16  68 CALM      29.64R
WOLF CREEK PAS CLOUDY     9   9 100 S25G35    29.61S WCI -13
$$

COZ009-010-012-014-032>034-037-058>063-201800-
...CENTRAL COLORADO...

CITY           SKY/WX    TMP DP  RH WIND       PRES   REMARKS
ASPEN          LGT SNOW  27  25  92 CALM      29.54R FOG
BUENA VISTA    FAIR      25  19  77 CALM      29.51S
COPPER MTN     SNOW      18  12  79 MISG      29.50R VSB 1/2
BERTHOUD PASS  NOT AVBL
COTTONWOOD PAS CLOUDY    28  16  59 NW7G18    29.50R WCI  21
GUNNISON       LGT SNOW  12   8  84 SE6       29.62R FOG     WCI   3
KREMMLING      LGT SNOW  23  18  80 CALM      29.57R
LEADVILLE      SNOW      21  17  84 N3        29.50R VSB 1/2
MONARCH PASS   CLOUDY    12   9  85 MISG      29.59R
SALIDA         FAIR      34  17  49 SW15G26   29.58S WCI  24
SUNLIGHT       SNOW      18  16  93 MISG      29.58R VSB 1/4
WILKERSON PASS CLOUDY    19  16  86 NW8G17    29.50S FOG     WCI   9
$$

COZ069>075-201800-
...SAN LUIS VALLEY/SANGRE DE CRISTO MOUNTAINS...

CITY           SKY/WX    TMP DP  RH WIND       PRES   REMARKS
ALAMOSA        PTSUNNY   16  15  96 SW7       29.60R WCI   6
LA VETA PASS   PTSUNNY   18  14  86 NE29G47   29.50R WCI  -2
SAGUACHE       PTSUNNY   25  21  86 SE9       29.59R WCI  15
$$

COZ035-036-038>040-201800-
...NORTHERN COLORADO FRONT RANGE...

CITY           SKY/WX    TMP DP  RH WIND       PRES   REMARKS
DENVER INTL AP FLURRIES  36  31  82 SW6       29.47S
DMNS CITY PARK   N/A     38  28  68 E8G15     29.46S
AURORA         CLOUDY    36  30  79 W3        29.47S
FRONT RANGE AP LGT SNOW  37  32  81 CALM      29.47S
ERIE MUNI ARPT CLOUDY    37  28  71 CALM      29.47S
BOULDER MUN AP CLOUDY    37  28  70 CALM      29.46S
CENTENNIAL     CLOUDY    34  30  85 S5        29.47S WCI  30
BROOMFIELD     CLOUDY    37  27  65 CALM      29.47S
FORT COLLINS   FAIR      39  28  65 CALM      29.47S
LONGMONT       CLOUDY    40  29  65 CALM      29.49S
$$

COZ041-046-047-076>085-087-088-201800-
...PIKES PEAK/PALMER DIVIDE AND SOUTHERN FOOTHILLS...

CITY           SKY/WX    TMP DP  RH WIND       PRES   REMARKS
COLO. SPRINGS  LGT SNOW  33  30  88 N3        29.48R FOG
A. F. ACADEMY  LGT SNOW  34  30  85 NW8       29.46R WCI  27
SCHRIEVER AFB  NOT AVBL
ELLICOTT       PTSUNNY  N/A N/A N/A E10       29.46R
FALCON         CLOUDY    32  30  91 N7        29.48R WCI  26
FORT CARSON    LGT SNOW  34  32  93 SW3       29.49R
LIMON          LGT SNOW  33  29  85 W3        29.46R FOG
MONUMENT HILL  LGT SNOW  30  28  93 NW8       29.48S WCI  23
TRINIDAD       FAIR      40  20  44 NW9       29.48R
$$

COZ042>045-048>051-090-091-201800-
...NORTHEAST COLORADO...

CITY           SKY/WX    TMP DP  RH WIND       PRES   REMARKS
GREELEY ARPT   FAIR      35  28  75 CALM      29.47F
AKRON          CLOUDY    35  27  72 W8        29.45F WCI  29
BURLINGTON     CLOUDY    36  30  79 NW17      29.43F
WRAY           NOT AVBL
STERLING       CLOUDY    37  32  81 W5        29.45F
HOLYOKE        FAIR      36  32  87 W7        29.45F
FORT MORGAN    CLOUDY    38  31  74 NW5       29.48S
$$

COZ086-089-092>099-201800-
...SOUTHEAST COLORADO...

CITY           SKY/WX    TMP DP  RH WIND       PRES   REMARKS
PUEBLO         CLOUDY    41  31  67 NE7       29.48R
LA JUNTA       CLOUDY    37  31  78 CALM      29.48R
LAMAR          CLOUDY    32  30  92 CALM      29.46R
SPRINGFIELD      N/A     45  30  55 NW14      29.42F
$$



USA.gov is the U.S. government's official web portal to all federal, state and local government web resources and services.